Location: Castel d�Emilio
(43.5667°N, 13.3667°E)
Time: 04:15:52
(UTC+00:00)

Daily predictions for brighter satellites

Satellite Brightness Start Highest point End
(mag) Time Altitude Azimuth Time Altitude Azimuth Time Altitude Azimuth
SL-16 R/B 3.8 02:33:07 31° NE 02:33:07 31° NE 02:36:15 10° NE
Cosmos 2369 Rocket 4.4 02:39:06 10° N 02:43:29 22° NE 02:47:51 10° E
CZ-4C R/B 3.9 02:49:28 25° N 02:49:28 25° N 02:52:22 10° NNE
Lacrosse 5 3.4 02:56:48 33° ENE 02:56:48 33° ENE 03:00:28 10° E
NOSS 3-1 (C) 4.2 03:11:24 57° SSW 03:11:24 57° SSW 03:18:34 10° SSE
CZ-2C R/B 3.1 03:06:07 10° NNE 03:10:46 54° E 03:10:46 54° E
Cosmos 1605 Rocket 4.2 03:13:04 10° N 03:19:17 67° E 03:25:23 10° SSE
BREEZE-M DEB (TANK) 3.6 03:21:49 49° N 03:22:02 49° NNE 03:31:57 10° E
ADEOS 4.1 03:23:50 10° N 03:27:38 49° N 03:27:38 49° N
GEOS 3 Rocket 4.2 03:26:30 10° NE 03:31:44 56° ESE 03:33:19 41° S
Cosmos 2237 Rocket 3.9 03:34:18 19° NNW 03:34:18 19° NNW 03:36:35 10° N
USA 215 4.1 03:31:33 10° NE 03:37:17 34° NNW 03:38:28 31° NW
Meteor 2-10 Rocket 4.1 03:40:28 43° NNW 03:40:28 43° NNW 03:44:06 10° N
Cosmos 1727 Rocket 4.2 03:39:31 10° S 03:45:40 70° E 03:51:49 10° NNE
CZ-4B R/B 3.3 03:42:43 10° NNE 03:46:10 52° E 03:46:10 52° E
ATLAS CENTAUR R/B 3.1 03:49:20 24° N 03:49:20 24° N 03:51:42 10° NNE
Aureole 2 Rocket 4.4 03:47:43 23° NE 03:48:20 24° ENE 03:51:00 10° ESE
Meteor 1-31 Rocket 3.3 03:47:25 10° NNE 03:50:22 51° NNE 03:50:22 51° NNE
Cosmos 1339 Rocket 4.3 03:49:40 34° SSW 03:52:22 69° W 03:58:28 10° N
MSX 4.5 03:53:02 10° N 03:57:22 35° NW 03:57:22 35° NW
Cosmos 1500 Rocket 3.8 03:54:23 10° N 03:58:50 70° E 04:03:11 10° SSE
Cosmos 1943 Rocket 2.0 03:55:25 16° NNW 03:59:50 88° WSW 04:05:21 10° SSE
Cosmos 614 Rocket 4.2 03:56:15 12° S 04:00:58 70° ESE 04:06:10 10° NNE
H-2A R/B 2.5 03:59:49 10° N 04:04:14 78° WNW 04:06:15 32° SSW
NOSS 3-1 (A) 4.3 04:01:46 32° WNW 04:05:00 46° WSW 04:13:11 10° S
STARLINK-1118 4.3 04:09:01 29° ENE 04:09:01 29° ENE 04:10:29 10° ENE
Okean O Rocket 4.0 04:06:03 10° NE 04:09:38 24° E 04:13:10 10° SSE
Cosmos 2100 Rocket 4.3 04:03:37 10° N 04:09:50 67° E 04:15:56 10° SSE
Cosmos 1743 Rocket 3.3 04:06:41 10° N 04:11:01 80° W 04:15:20 10° S
USA 267 4.2 04:05:46 10° S 04:10:41 26° SW 04:10:41 26° SW
Cosmos 1869 3.7 04:07:22 10° S 04:11:20 64° E 04:15:16 10° NNE
SL-16 R/B 3.1 04:15:01 29° NW 04:15:09 29° NW 04:20:04 10° N
FENGYUN 3A 3.9 04:16:29 10° NNE 04:21:57 74° ESE 04:27:22 10° S
Cosmos 1842 Rocket 3.8 04:21:58 34° WSW 04:23:22 45° WNW 04:27:41 10° N
Cosmos 1459 Rocket 4.1 04:17:16 10° N 04:23:28 78° E 04:29:44 10° S
CZ-4B R/B 4.4 04:21:24 10° N 04:25:30 43° WNW 04:27:11 30° WSW
Shenzhou-11 Module 2.7 04:26:01 36° S 04:26:10 36° SSE 04:28:38 10° E
Cosmos 2369 Rocket 2.1 04:22:21 10° NNW 04:28:04 68° WSW 04:33:42 10° SSE
Cosmos 1238 Rocket 4.3 04:22:41 10° N 04:28:45 61° ENE 04:33:50 10° SSE
STARLINK-1070 2.5 04:29:12 67° W 04:29:31 79° NNW 04:32:27 10° NE
STARLINK-1124 2.6 04:29:56 61° WNW 04:30:07 63° NNW 04:33:01 10° NE
STARLINK-1066 2.5 04:30:06 65° W 04:30:26 77° NW 04:33:22 10° NE
STARLINK-1081 2.5 04:30:19 64° W 04:30:39 77° NW 04:33:35 10° NE
STARLINK-1069 2.5 04:30:45 63° W 04:31:06 76° NW 04:34:03 10° NE
Cosmos 1603 3.6 04:25:32 10° SW 04:31:13 68° WNW 04:36:54 10° NNE
STARLINK-1085 2.5 04:30:59 62° W 04:31:21 76° NNW 04:34:16 10° NE
STARLINK-1086 2.5 04:31:11 61° W 04:31:34 75° NW 04:34:30 10° NE
STARLINK-1095 2.5 04:31:24 61° W 04:31:47 75° NW 04:34:42 10° NE
STARLINK-1077 2.5 04:31:37 60° W 04:32:01 75° NW 04:34:57 10° NE
STARLINK-1075 2.6 04:31:50 60° W 04:32:14 74° NW 04:35:10 10° NE
SJ-12 3.8 04:28:13 10° N 04:32:23 82° WNW 04:36:30 10° SSW
STARLINK-1093 2.6 04:32:03 59° W 04:32:28 74° NNW 04:35:24 10° NE
Meteor PRIRODA 3.7 04:28:57 10° N 04:32:34 53° WNW 04:35:44 13° SSW
STARLINK-1074 2.6 04:32:15 59° W 04:32:41 73° NNW 04:35:36 10° NE
STARLINK-1087 2.6 04:32:29 58° W 04:32:55 73° NW 04:35:50 10° NE
STARLINK-1088 2.6 04:32:41 58° W 04:33:06 73° NW 04:36:02 10° NE
STARLINK-1115 2.6 04:32:55 57° W 04:33:22 72° NNW 04:36:17 10° NE
STARLINK-1076 2.6 04:33:08 56° W 04:33:35 72° NW 04:36:31 10° NE
STARLINK-1092 2.6 04:33:21 56° W 04:33:49 72° NW 04:36:44 10° NE
STARLINK-1080 2.6 04:33:33 55° W 04:34:01 71° NW 04:36:57 10° NE
STARLINK-1090 2.6 04:33:46 55° W 04:34:15 71° NNW 04:37:11 10° NE
STARLINK-1089 2.6 04:34:00 54° W 04:34:29 70° NW 04:37:25 10° NE
STARLINK-1107 2.6 04:34:12 54° W 04:34:41 70° NW 04:37:36 10° NE
STARLINK-1109 2.6 04:34:25 53° W 04:34:56 70° NNW 04:37:51 10° NE
STARLINK-1091 2.6 04:34:39 53° W 04:35:10 69° NNW 04:38:06 10° NE
STARLINK-1072 2.6 04:34:51 52° W 04:35:23 69° NNW 04:38:18 10° NE
STARLINK-1096 2.6 04:35:04 52° W 04:35:35 69° NW 04:38:30 10° NE
USA 116 3.6 04:32:31 10° SSE 04:35:40 61° ENE 04:38:45 10° N
Cosmos 921 Rocket 2.9 04:31:16 10° NNW 04:35:44 85° WSW 04:40:03 10° SSE
STARLINK-1079 2.6 04:35:17 51° W 04:35:49 68° NW 04:38:45 10° NE
STARLINK-1116 2.6 04:35:31 51° W 04:36:04 68° NNW 04:39:00 10° NE
Cosmos 1943 3.1 04:30:37 10° SSW 04:36:13 79° WNW 04:41:53 10° NNE
STARLINK-1094 2.6 04:35:57 50° W 04:36:31 67° NNW 04:39:26 10° NE
STARLINK-1117 2.6 04:36:09 49° W 04:36:43 67° NW 04:39:39 10° NE
STARLINK-1078 2.6 04:36:22 49° W 04:36:57 67° NW 04:39:52 10° NE
CZ-4C R/B 4.2 04:34:38 12° NW 04:37:07 15° NNW 04:40:43 10° NNE
Cosmos 482 Debris 4.0 04:37:16 29° NE 04:37:16 29° NE 04:38:49 10° E
STARLINK-1108 2.6 04:36:35 48° W 04:37:11 66° NNW 04:40:06 10° NE
MOS 1-B 4.4 04:31:27 10° NNE 04:37:19 83° ESE 04:43:07 10° SSW
STARLINK-1071 2.6 04:36:48 49° W 04:37:23 66° NNW 04:40:18 10° NE
STARLINK-1110 2.6 04:37:02 48° W 04:37:38 65° NNW 04:40:34 10° NE
STARLINK-1122 2.6 04:37:28 47° W 04:38:05 65° NNW 04:41:00 10° NE
STARLINK-1126 2.7 04:37:40 46° W 04:38:18 64° NW 04:41:13 10° NE
STARLINK-1082 2.7 04:37:54 46° W 04:38:32 64° NW 04:41:28 10° NE
STARLINK-1100 2.7 04:38:06 45° W 04:38:45 64° NNW 04:41:40 10° NE
Lacrosse 5 2.0 04:36:01 23° WNW 04:38:55 52° SW 04:43:49 10° SSE
STARLINK-1083 2.7 04:38:19 45° W 04:38:59 64° NNW 04:41:54 10° NE
STARLINK-1125 2.7 04:38:32 45° W 04:39:13 63° NNW 04:42:07 10° NE
Cosmos 1633 2.4 04:35:35 10° N 04:39:15 86° W 04:42:52 10° S
CZ-4B DEB 4.3 04:34:20 10° NNE 04:39:51 81° ESE 04:45:18 10° SSW
ATLAS 2AS CENTAUR R/B 4.5 04:33:30 10° NNW 04:40:03 28° NNE 04:46:09 10° E
COSMO-SKYMED 1 2.6 04:36:15 10° S 04:40:31 57° W 04:44:49 10° NNW
Cosmos 2263 4.1 04:36:43 10° NNW 04:42:24 72° WSW 04:47:59 10° SSE
Cosmos 1656 Rocket 3.9 04:36:59 10° NNW 04:42:42 76° ENE 04:48:23 10° SSE
Cosmos 1802 Rocket 4.1 04:38:40 10° N 04:45:09 87° W 04:51:34 10° S
Cosmos 2221 3.1 04:42:17 12° SW 04:45:43 33° WNW 04:49:38 10° N
Cosmos 1633 Rocket 4.4 04:41:41 10° N 04:45:50 41° ENE 04:49:59 10° SSE
STARLINK-1098 3.6 04:44:49 16° SW 04:47:58 82° SE 04:52:02 10° ENE
CZ-4B R/B 3.7 04:42:52 10° NNE 04:48:09 61° ESE 04:53:21 10° S
Cosmos 1666 Rocket 4.4 04:44:04 10° N 04:48:26 54° ENE 04:52:44 10° SSE
Cosmos 1862 3.6 04:45:01 10° N 04:48:58 69° E 04:52:55 10° SSE
CZ-2C R/B 3.7 04:45:14 10° NNW 04:48:59 21° WNW 04:50:10 19° W
ADEOS Rocket 3.6 04:43:14 10° SSE 04:49:21 68° ENE 04:56:15 10° N
Meteor 2-3 Rocket 4.4 04:45:37 10° NNW 04:50:37 32° W 04:55:39 10° SSW
STARLINK-1123 3.5 04:49:20 15° SW 04:52:40 89° SE 04:56:44 10° NE
ALOS 2.5 04:52:47 10° N 04:57:17 48° WNW 05:01:45 10° SW
Cosmos 1484 Rocket 3.8 04:53:57 10° NNW 04:57:17 27° WNW 05:00:39 10° SW
STARLINK-1097 3.5 04:53:57 13° SW 04:57:29 85° NNW 05:01:32 10° NE
STARLINK-1099 3.5 04:58:28 12° WSW 05:02:10 79° NW 05:06:14 10° NE
STARLINK-1104 3.5 05:02:56 11° WSW 05:06:50 73° NNW 05:10:54 10° NE
GEOS 3 Rocket 4.5 05:04:52 10° NNE 05:09:32 33° NW 05:14:15 10° WSW
Cosmos 2016 Rocket 4.0 05:04:46 10° NNW 05:10:58 67° W 05:17:12 10° S
STARLINK-1144 3.6 05:07:33 10° WSW 05:11:36 68° NNW 05:15:39 10° NE
SJ-7 4.4 05:08:27 10° N 05:12:43 78° WNW 05:16:54 10° SSW
Cosmos 1340 3.8 05:09:19 10° N 05:12:59 48° ENE 05:16:36 10° SSE
Cosmos 1346 Rocket 4.3 05:09:25 10° N 05:13:06 38° ENE 05:16:45 10° SE
STARLINK-1103 3.6 05:12:21 10° WSW 05:16:23 63° NNW 05:20:25 10° NE
Cosmos 1954 Rocket 4.1 05:11:46 10° SSW 05:17:01 60° WNW 05:22:18 10° NNE
PAYLOAD B 4.3 05:12:08 10° N 05:17:36 57° WNW 05:23:01 10° SSW
Cosmos 407 Rocket 4.3 05:13:54 10° WSW 05:18:34 30° WNW 05:23:13 10° N
STARLINK-1128 3.7 05:14:38 10° WSW 05:18:36 59° NNW 05:22:36 10° NE
Cosmos 1140 Rocket 4.0 05:14:47 10° SW 05:19:42 39° WNW 05:24:38 10° N
STARLINK-1101 3.7 05:17:08 10° WSW 05:21:08 59° NNW 05:25:10 10° NE
Aureole 2 Rocket 3.9 05:20:08 10° WNW 05:22:02 15° WSW 05:24:00 10° SW
STARLINK-1113 3.7 05:19:10 10° WSW 05:23:07 56° NNW 05:27:05 10° NE
STARLINK-1102 3.8 05:21:55 10° WSW 05:25:54 55° NNW 05:29:54 10° NE
STARLINK-1119 3.8 05:23:46 10° WSW 05:27:42 52° NNW 05:31:39 10° NE
Cosmos 1470 Rocket 4.1 05:23:48 10° N 05:28:15 66° E 05:32:42 10° SSE
Cosmos 2233 Rocket 4.1 05:22:24 10° N 05:28:42 88° E 05:35:02 10° S
Cosmos 1805 Rocket 4.4 05:25:19 10° NNW 05:28:57 27° W 05:32:36 10° SSW
STARLINK-1111 3.9 05:26:39 10° WSW 05:30:37 51° NNW 05:34:37 10° NE
Sich 1 3.6 05:27:26 10° NNW 05:31:20 35° W 05:35:14 10° SSW
STARLINK-1114 3.9 05:28:24 10° WSW 05:32:18 49° NNW 05:36:14 10° NE
STARLINK-1073 3.9 05:31:27 10° WSW 05:35:24 48° NNW 05:39:22 10° NE
Cosmos 1315 Rocket 3.1 05:32:00 10° S 05:35:56 75° E 05:39:53 10° NNE
